Beijing-1

operational
NORAD ID: 28890 Int'l Des: 2005-043 Owner: BLMIT Country: CN
LEOCIRCULARRETROGRADESSO

Beijing-1について

説明を読み込み中...

リアルタイム位置

3D地球を読み込み中...

次回通過

高度履歴

Altitude vs Time

uPlot chart will show altitude changes over time

軌道要素

1 28890U 05043A 26061.63007020 .00000757 00000-0 15554-3 0 9994
2 28890 98.2712 194.3597 0013383 254.1479 105.8248 14.63452909 85066
Epoch: Mar 2, 2026 • Age: 27 hours

現在のステータス

高度 687.8 km
速度 7.51 km/s
衛星直下点 -0.40°S, 5.09°W
打ち上げ日 Oct 27, 2005
運用期間 20.3 years
タイプ other

技術仕様

分類 Payload
質量 150.00 kg
乾燥質量 150.00 kg
総質量 150.00 kg
長さ 0.90 m
直径 0.80 m
スパン 0.90 m
形状 Box
製造者 SSTL
バスタイプ SSTL-150
フェーズステータス In Orbit
所有者/国 BLMIT/CN

大規模コンステレーション

Loading constellations...